Regional Weather Roundup
Issued by NWS

Home | Current Version | Previous Version | Text Only | Print | Product List | Glossary On
Versions: 1 2 3 4 5 6 7 8 9 10 11 12 13 14 15 16 17 18 19 20 21 22 23 24 25 26 27 28 29 30 31 32 33 34 35 36 37 38 39 40 41 42 43 44 45 46 47 48 49 50
250
ASUS43 KLOT 010308
RWRIL

ILLINOIS REGIONAL WEATHER ROUNDUP
NATIONAL WEATHER SERVICE CHICAGO/ROMEOVILLE IL
1000 PM CDT WED AUG 31 2016

NOTE: "FAIR" INDICATES FEW OR NO CLOUDS BELOW 12,000 FEET WITH NO
SIGNIFICANT WEATHER AND/OR OBSTRUCTIONS TO VISIBILITY.

* THESE STATIONS ARE NOT UNDER NWS QUALITY CONTROL. THEY ALSO MAY NOT
  REPORT WEATHER SUCH AS PRECIPITATION OR FOG.

ILZ001-002-007-009-015-016-024-010400-
NORTHWEST ILLINOIS

CITY           SKY/WX    TMP DP  RH WIND       PRES   REMARKS
MOLINE         CLEAR     68  57  68 NE3       30.11R
STERLING*      CLEAR     66  59  78 N3        30.12R
SAVANNA*       CLEAR     61  59  93 CALM      30.13R
$$

ILZ003-004-008-010-011-017-018-010400-
NORTH CENTRAL ILLINOIS

CITY           SKY/WX    TMP DP  RH WIND       PRES   REMARKS
ROCKFORD       CLEAR     66  56  70 E3        30.13R
FREEPORT*      CLEAR     60  56  88 CALM      30.14S
ROCHELLE*      CLEAR     62  57  85 E5        30.13R
DE KALB*       CLEAR     61  57  87 N3        30.13R
$$

ILZ005-006-012>014-019>023-010400-
NORTHEAST ILLINOIS

CITY           SKY/WX    TMP DP  RH WIND       PRES   REMARKS
CHICAGO-OHARE  CLEAR     66  56  70 N6        30.09S
CHICAGO-MIDWAY CLEAR     71  54  54 N14       30.08S
AURORA         CLEAR     62  56  80 N5        30.11S
LANSING*       CLEAR     69  60  72 N10G20    30.08S
JOLIET*        CLEAR     67  57  71 N5        30.10S
WAUKEGAN       CLEAR     63  55  75 N3        30.10S
DUPAGE AIRPORT CLEAR     62  53  72 N6        30.10S
KANKAKEE*      CLEAR     64  56  76 CALM      30.09S
WHEELING       CLEAR     65  55  70 N5        30.11S
MORRIS*        CLEAR     61  57  86 CALM      30.09S
ROMEOVILLE*    CLEAR     64  58  81 N6        30.10R
NORTHERLY ISL    N/A     70  57  63 MISG        N/A
$$

LMZ740>746-010400-
SOUTHERN LAKE MICHIGAN

STATION/POSITION SKY/WX   TEMP    WIND        PRES    VSBY  WAVE
                          AIR SEA DIR/SP/G                  HT/PER
                          (F)     (DEG/KT/KT) (MB)    (MI)  (FT/S)
SOUTHERN BUOY              71 74   30/ 17/ 21 1018.0R         5/ 6
WILMETTE HARBOR            72 72   50/ 17/ 23   N/A           7/ 7
HARRISON CRIB              72      10/ 25/ 27   N/A
BURNHAM HARBOR             70      20/ 12/ 17   N/A
CALUMET HARBOR             71                 1018.2R
BURNS HARBOR               71      30/ 17/ 22 1018.6R
MICHIGAN CITY              70     360/ 22/ 24   N/A
MICHIGAN CITY 6N           69 61   20/ 16/ 21   N/A           8/ 7
ST. JOSEPH                 64 57   20/ 10/ 14 1018.0R         7/ 6
$$

ILZ025>027-034>036-040-047-049-050-058-095>099-010400-
WEST-CENTRAL ILLINOIS

CITY           SKY/WX    TMP DP  RH WIND       PRES   REMARKS
QUINCY         CLEAR     67  64  90 N6        30.09R
GALESBURG*     CLEAR     61  59  93 N5        30.11S
MACOMB*        CLEAR     64  62  94 N5        30.12S
JACKSONVILLE*  CLEAR     69  65  89 N5        30.08R
PITTSFIELD*    CLEAR     69  66  88 N5        30.09S
$$

ILZ028>032-037-038-041>044-048-051>054-059>061-010400-
CENTRAL ILLINOIS

CITY           SKY/WX    TMP DP  RH WIND       PRES   REMARKS
PONTIAC        CLEAR     63  59  87 NE5       30.11R
BLOOMINGTON    CLOUDY    64  58  80 NE7       30.10S
DECATUR        PTCLDY    68  63  84 NE8       30.08R
PEORIA         CLEAR     68  62  81 NE5       30.10R
LACON*         CLEAR     64  59  85 CALM      30.10R
LINCOLN*       PTCLDY    68  61  78 NE8       30.08R
SPRINGFIELD    CLOUDY    70  64  81 NE9       30.07R
TAYLORVILLE    MOCLDY    69  67  92 NE7       30.06R
$$

ILZ033-039-045-046-055>057-062-063-010400-
EAST-CENTRAL ILLINOIS

CITY           SKY/WX    TMP DP  RH WIND       PRES   REMARKS
CHAMPAIGN      PTCLDY    67  59  75 NE13      30.07S
RANTOUL*       PTCLDY    67  61  80 NE7       30.08S
MATTOON        CLEAR     68  62  81 NE10      30.05R
PARIS*         PTCLDY    66  62  85 N5        30.07R
$$

ILZ079-100>102-010400-
SOUTHWEST ILLINOIS

CITY           SKY/WX    TMP DP  RH WIND       PRES   REMARKS
ALTON          CLOUDY    72  70  94 N8        30.05R
BELLEVILLE     PTCLDY    74  73  95 N3        30.02R
CAHOKIA*       PTCLDY    74  68  81 CALM      30.03S
SPARTA*        CLOUDY    72  71  98 W3        30.04S
$$

ILZ064>066-069>071-074>076-080>082-084>086-088>090-092>094-010400-
SOUTH-CENTRAL ILLINOIS

CITY           SKY/WX    TMP DP  RH WIND       PRES   REMARKS
CARBONDALE     CLOUDY    72  70  93 CALM      30.01S
CAIRO*         PTCLDY    72  70  93 N3        30.00S
EFFINGHAM*     PTCLDY    71  66  83 N6        30.05R
MARION         CLOUDY    73  72  94 CALM      30.02S
MT. VERNON     MOCLDY    73  68  83 CALM      30.02R
CENTRALIA*     CLOUDY    74  74  99 N8        30.02R
SALEM*         CLOUDY    75  72  88 N8        30.03R
METROPOLIS*    PTCLDY    74  71  91 CALM      30.00R
$$

ILZ067-068-072-073-078-083-087-091-010400-
SOUTHEAST ILLINOIS

CITY           SKY/WX    TMP DP  RH WIND       PRES   REMARKS
LAWRENCEVILLE  MOCLDY    75  69  81 N16       30.00R
FLORA*         CLOUDY    75  70  85 N9        30.02R
FAIRFIELD*       N/A     73  71  95 N5        29.99S
HARRISBURG*    CLOUDY    73  72  96 CALM      30.00R
ROBINSON*      PTCLDY    70  67  88 N10       30.03R
CARMI*         CLOUDY    72  72 100 NW3       29.99R FOG
$$

ABBREVIATIONS USED IN REMARKS
   TC - TEMPERATURE IN CELSIUS
  WCI - WIND CHILL INDEX
   HX - HEAT INDEX
  VSB - VISIBILITY
$$





USA.gov is the U.S. government's official web portal to all federal, state and local government web resources and services.